OneWeb SL0162

operational
NORAD ID: 48056 Int'l Des: 2021-025 Owner: ONEWEBN Country: UK Constellation: oneweb
LEOCIRCULARPOLARONEWEB_TYPE

关于 OneWeb SL0162

正在加载描述...

实时位置

正在加载3D地球...

即将过境

高度历史

Altitude vs Time

uPlot chart will show altitude changes over time

两行轨道根数

1 48056U 21025Q 26034.59055020 -.00000178 00000-0 -52306-3 0 9991
2 48056 87.9035 346.7729 0001942 79.6928 280.4420 13.13469996236004
Epoch: Feb 3, 2026 • Age: 18 hours

当前状态

高度 1213.1 km
速度 7.25 km/s
星下点 33.31°N, 84.1°E
发射日期 Mar 25, 2021
运行时间 4.8 years
类型 internet

技术详情

分类 Payload
质量 148.00 kg
干质量 140.00 kg
总质量 148.00 kg
长度 1.30 m
直径 1.00 m
跨度 5.00 m
形状 Trapezoid+2 pan
制造商 ONEWUS
平台类型 ARROW
阶段状态 In Orbit
所有者/国家 ONEWEBN/UK

大型星座

Loading constellations...